Regional Weather Roundup
Issued by NWS Sioux Falls, SD

Home | Current Version | Previous Version | Graphics & Text | Print | Product List | Glossary Off
Versions: 1 2 3 4 5 6 7 8 9 10 11 12 13 14 15 16 17 18 19 20 21 22 23 24 25 26 27 28 29 30 31 32 33 34 35 36 37 38 39 40 41 42 43 44 45 46 47 48 49 50

692
ASUS43 KFSD 111010
RWRFSD

WEATHER ROUNDUP FOR SE SOUTH DAKOTA/SW MINNESOTA/NW IOWA
NATIONAL WEATHER SERVICE SIOUX FALLS SD
400 AM CST THU FEB 11 2016

NOTE: "FAIR" INDICATES FEW OR NO CLOUDS BELOW 12,000 FEET WITH NO
SIGNIFICANT WEATHER AND OR OBSTRUCTIONS TO VISIBILITY.


SDZ038>040-050-052>070-111100-
SOUTHEAST SOUTH DAKOTA

CITY           SKY/WX    TMP DP  RH WIND       PRES   REMARKS
BROOKINGS      CLOUDY    11   6  81 S3        30.23R
CHAMBERLAIN    CLOUDY    22  19  90 CALM      30.19S
HURON          CLOUDY    16  10  77 CALM      30.24F
MADISON        CLOUDY    10   9  92 SE6       30.21S WCI   1
MITCHELL       CLOUDY    18  12  77 SE6       30.26R WCI  10
SIOUX FALLS    CLOUDY    13   4  67 E5        30.24S WCI   5
WINNER         CLOUDY    26  22  84 E3        30.15F
YANKTON        CLOUDY    16   9  73 E6        30.26S WCI   7
$$

MNZ071-072-080-081-089-090-097-098-111100-
SOUTHWEST MINNESOTA

CITY           SKY/WX    TMP DP  RH WIND       PRES   REMARKS
FAIRMONT       CLOUDY     0  -6  78 N3        30.25R
JACKSON        PTCLDY     3  -2  78 CALM      30.25R
LUVERNE        CLOUDY    14   7  73 E3        30.24F
MARSHALL       PTCLDY     1  -4  79 W6        30.28S WCI -10
MONTEVIDEO     CLOUDY     3  -2  78 CALM      30.29S
PIPESTONE      CLOUDY    14   3  62 CALM      30.22S
REDWOOD FALLS  CLOUDY     5   2  87 CALM      30.28S
TRACY          PTCLDY     3   0  87 CALM      30.26S
WINDOM         PTCLDY    -6  -8  92 CALM      30.24S
WORTHINGTON    CLOUDY     9   1  72 CALM      30.25R
$$

IAZ001>003-012>014-020>022-031-032-NEZ013-014-SDZ071-111100-
NORTHWEST IOWA

CITY           SKY/WX    TMP DP  RH WIND       PRES   REMARKS
CHEROKEE       CLOUDY    13   6  72 CALM      30.27R
DENISON        CLOUDY    12   7  79 E10       30.22F WCI  -1
ESTHERVILLE    PTCLDY    -1  -3  91 NW6       30.26R WCI -13
LE MARS        CLOUDY    14   7  73 E5        30.28R WCI   6
ORANGE CITY    CLOUDY    12   9  85 E3        30.24S
SHELDON        CLOUDY    12   7  79 NE7       30.24R WCI   2
SIOUX CITY     CLOUDY    17   8  67 E5        30.27R WCI  10
SPENCER        CLOUDY    12   3  67 NE5       30.26R WCI   4
STORM LAKE     CLOUDY    12   5  73 E9        30.24R WCI   0
$$

ABBREVIATIONS USED IN REMARKS
   TC - TEMPERATURE IN CELSIUS
  WCI - WIND CHILL INDEX
   HX - HEAT INDEX
  VSB - VISIBILITY





USA.gov is the U.S. government's official web portal to all federal, state and local government web resources and services.